RYR5439 LEMG-GMTN

Flight info

Callsign RYR5439
Flight time 0h 21m
Altitude 13000
Route PIMOS N869 GALTO UB11 TTN
Aircraft B738/M-SDE2E3FGHIRWXY/LB1

Departure

Time 2026-05-05 21:25
Airport Málaga-Costa del Sol Airport (LEMG)

Arrival

Time 2026-05-05 21:47
Airport Sania Ramel Airport (GMTN)
Time Latitude Longitude Altitude Speed Heading
2026-05-05 21:14 36.67415 -4.49065 40 ft 0 kts 123°
2026-05-05 21:14 36.67418 -4.49071 40 ft 2 kts 124°
2026-05-05 21:14 36.67427 -4.49086 40 ft 2 kts 124°
2026-05-05 21:15 36.67433 -4.49104 40 ft 2 kts 99°
2026-05-05 21:15 36.67433 -4.49122 40 ft 2 kts 82°
2026-05-05 21:15 36.67429 -4.49139 40 ft 2 kts 63°
2026-05-05 21:15 36.67421 -4.49154 40 ft 2 kts 44°
2026-05-05 21:16 36.67409 -4.49166 40 ft 2 kts 42°
2026-05-05 21:16 36.67398 -4.49179 40 ft 2 kts 43°
2026-05-05 21:16 36.67387 -4.49191 39 ft 2 kts 42°
2026-05-05 21:16 36.67376 -4.49204 39 ft 2 kts 42°
2026-05-05 21:17 36.67364 -4.49216 39 ft 2 kts 42°
2026-05-05 21:17 36.67353 -4.49229 40 ft 2 kts 42°
2026-05-05 21:17 36.67344 -4.49243 40 ft 2 kts 70°
2026-05-05 21:17 36.67341 -4.49261 40 ft 2 kts 95°
2026-05-05 21:18 36.67345 -4.49279 41 ft 2 kts 121°
2026-05-05 21:18 36.67355 -4.49293 41 ft 1 kts 135°
2026-05-05 21:18 36.67357 -4.49296 41 ft 0 kts 133°
2026-05-05 21:20 36.67336 -4.49266 40 ft 12 kts 130°
2026-05-05 21:20 36.67267 -4.49289 41 ft 13 kts 250°
2026-05-05 21:21 36.67333 -4.49396 42 ft 23 kts 310°
2026-05-05 21:21 36.67444 -4.49555 42 ft 24 kts 310°
2026-05-05 21:21 36.67556 -4.49708 45 ft 23 kts 310°
2026-05-05 21:21 36.67662 -4.49861 45 ft 16 kts 312°
2026-05-05 21:22 36.67731 -4.49841 45 ft 9 kts 24°
2026-05-05 21:22 36.67800 -4.49844 45 ft 9 kts
2026-05-05 21:22 36.67860 -4.49777 43 ft 17 kts 45°
2026-05-05 21:22 36.68009 -4.49613 41 ft 32 kts 42°
2026-05-05 21:23 36.68177 -4.49433 37 ft 30 kts 39°
2026-05-05 21:23 36.68263 -4.49221 34 ft 30 kts 117°
2026-05-05 21:23 36.68164 -4.48979 32 ft 32 kts 119°
2026-05-05 21:23 36.68057 -4.48735 32 ft 28 kts 117°
2026-05-05 21:24 36.67968 -4.48522 29 ft 28 kts 118°
2026-05-05 21:24 36.67872 -4.48295 28 ft 30 kts 117°
2026-05-05 21:24 36.67829 -4.48097 27 ft 21 kts 44°
2026-05-05 21:24 36.67960 -4.48061 26 ft 20 kts 314°
2026-05-05 21:25 36.68027 -4.48217 28 ft 21 kts 298°
2026-05-05 21:25 36.68161 -4.48542 29 ft 84 kts 298°
2026-05-05 21:25 36.68569 -4.49509 45 ft 162 kts 297°
2026-05-05 21:25 36.69126 -4.50775 746 ft 180 kts 300°
2026-05-05 21:26 36.69836 -4.52062 1826 ft 185 kts 311°
2026-05-05 21:26 36.70760 -4.53234 2596 ft 200 kts 316°
2026-05-05 21:26 36.71768 -4.54488 3421 ft 215 kts 315°
2026-05-05 21:26 36.72767 -4.55809 4577 ft 212 kts 314°
2026-05-05 21:27 36.73750 -4.57164 5523 ft 219 kts 308°
2026-05-05 21:27 36.74313 -4.58974 6280 ft 240 kts 275°
2026-05-05 21:27 36.73923 -4.61036 7054 ft 262 kts 243°
2026-05-05 21:27 36.72615 -4.62678 7933 ft 278 kts 213°
2026-05-05 21:28 36.70885 -4.63714 9021 ft 283 kts 205°
2026-05-05 21:28 36.69051 -4.64597 10259 ft 283 kts 204°
2026-05-05 21:28 36.67187 -4.65487 11142 ft 297 kts 204°
2026-05-05 21:28 36.65250 -4.66450 11953 ft 314 kts 204°
2026-05-05 21:29 36.63163 -4.67519 12652 ft 332 kts 205°
2026-05-05 21:29 36.60958 -4.68664 12957 ft 350 kts 205°
2026-05-05 21:29 36.58682 -4.69848 12987 ft 358 kts 205°
2026-05-05 21:29 36.56374 -4.71044 12974 ft 358 kts 205°
2026-05-05 21:30 36.54114 -4.72212 12992 ft 357 kts 205°
2026-05-05 21:30 36.51810 -4.73403 13000 ft 358 kts 204°
2026-05-05 21:30 36.49492 -4.74600 12976 ft 357 kts 204°
2026-05-05 21:30 36.47212 -4.75778 12981 ft 358 kts 204°
2026-05-05 21:31 36.44901 -4.76972 12979 ft 357 kts 204°
2026-05-05 21:31 36.42602 -4.78158 12980 ft 357 kts 204°
2026-05-05 21:31 36.40283 -4.79273 12983 ft 359 kts 201°
2026-05-05 21:31 36.37946 -4.80251 12979 ft 359 kts 200°
2026-05-05 21:32 36.35542 -4.81188 12976 ft 359 kts 199°
2026-05-05 21:32 36.33153 -4.82107 12972 ft 357 kts 199°
2026-05-05 21:32 36.30835 -4.83006 12969 ft 343 kts 199°
2026-05-05 21:32 36.28573 -4.83898 12887 ft 344 kts 200°
2026-05-05 21:33 36.26308 -4.84803 12536 ft 337 kts 200°
2026-05-05 21:33 36.24128 -4.85680 12047 ft 330 kts 200°
2026-05-05 21:33 36.21923 -4.86573 11527 ft 335 kts 200°
2026-05-05 21:33 36.19729 -4.87463 10986 ft 333 kts 200°
2026-05-05 21:34 36.17564 -4.88338 10613 ft 322 kts 200°
2026-05-05 21:34 36.15488 -4.89212 10434 ft 305 kts 204°
2026-05-05 21:34 36.13631 -4.90330 10317 ft 288 kts 212°
2026-05-05 21:34 36.11986 -4.91605 10197 ft 273 kts 215°
2026-05-05 21:35 36.10386 -4.92945 10002 ft 278 kts 216°
2026-05-05 21:35 36.08803 -4.94262 9651 ft 274 kts 215°
2026-05-05 21:35 36.07233 -4.95538 9303 ft 271 kts 214°
2026-05-05 21:35 36.05658 -4.96796 8966 ft 267 kts 214°
2026-05-05 21:36 36.04100 -4.98029 8640 ft 263 kts 214°
2026-05-05 21:36 36.02579 -4.99229 8317 ft 260 kts 214°
2026-05-05 21:36 36.01050 -5.00436 7995 ft 262 kts 214°
2026-05-05 21:36 35.99513 -5.01650 7660 ft 265 kts 214°
2026-05-05 21:37 35.97973 -5.02864 7333 ft 261 kts 214°
2026-05-05 21:37 35.96429 -5.04081 6853 ft 264 kts 214°
2026-05-05 21:37 35.94891 -5.05294 6340 ft 267 kts 214°
2026-05-05 21:37 35.93299 -5.06548 5812 ft 271 kts 214°
2026-05-05 21:38 35.91712 -5.07797 5293 ft 274 kts 214°
2026-05-05 21:38 35.90103 -5.09063 4775 ft 276 kts 214°
2026-05-05 21:38 35.88482 -5.10339 4252 ft 278 kts 214°
2026-05-05 21:38 35.86849 -5.11622 3726 ft 280 kts 214°
2026-05-05 21:39 35.85186 -5.12920 3198 ft 282 kts 213°
2026-05-05 21:39 35.83445 -5.13978 2661 ft 283 kts 200°
2026-05-05 21:39 35.81546 -5.14165 2425 ft 262 kts 172°
2026-05-05 21:39 35.79863 -5.13659 2410 ft 237 kts 164°
2026-05-05 21:40 35.78328 -5.13092 2408 ft 230 kts 165°
2026-05-05 21:40 35.76757 -5.12580 2409 ft 230 kts 168°
2026-05-05 21:40 35.75212 -5.12133 2419 ft 230 kts 169°
2026-05-05 21:40 35.73654 -5.11704 2400 ft 225 kts 169°
2026-05-05 21:41 35.72163 -5.11297 2401 ft 216 kts 169°
2026-05-05 21:41 35.70699 -5.10898 2406 ft 215 kts 169°
2026-05-05 21:41 35.69214 -5.10618 2404 ft 212 kts 182°
2026-05-05 21:41 35.67860 -5.11052 2409 ft 193 kts 217°
2026-05-05 21:42 35.67052 -5.12223 2415 ft 174 kts 245°
2026-05-05 21:42 35.66529 -5.13512 2407 ft 163 kts 246°
2026-05-05 21:42 35.66020 -5.14754 2420 ft 162 kts 247°
2026-05-05 21:42 35.65522 -5.16015 2391 ft 163 kts 248°
2026-05-05 21:43 35.65049 -5.17227 2203 ft 152 kts 248°
2026-05-05 21:43 35.64613 -5.18347 2028 ft 143 kts 248°
2026-05-05 21:43 35.64194 -5.19424 1842 ft 134 kts 248°
2026-05-05 21:43 35.63792 -5.20456 1631 ft 131 kts 248°
2026-05-05 21:44 35.63398 -5.21467 1463 ft 131 kts 248°
2026-05-05 21:44 35.63005 -5.22476 1277 ft 132 kts 248°
2026-05-05 21:44 35.62627 -5.23512 1155 ft 128 kts 253°
2026-05-05 21:44 35.62356 -5.24560 1205 ft 132 kts 257°
2026-05-05 21:45 35.62145 -5.25635 1039 ft 127 kts 258°
2026-05-05 21:45 35.61933 -5.26652 846 ft 119 kts 258°
2026-05-05 21:45 35.61712 -5.27642 732 ft 124 kts 255°
2026-05-05 21:45 35.61371 -5.28611 542 ft 122 kts 243°
2026-05-05 21:46 35.60885 -5.29491 392 ft 132 kts 237°
2026-05-05 21:46 35.60361 -5.30400 221 ft 131 kts 234°
2026-05-05 21:46 35.59828 -5.31317 19 ft 125 kts 234°
2026-05-05 21:46 35.59439 -5.31991 14 ft 53 kts 235°
2026-05-05 21:47 35.59296 -5.32246 14 ft 43 kts 234°
2026-05-05 21:47 35.59138 -5.32512 18 ft 26 kts 236°
2026-05-05 21:47 35.59033 -5.32692 18 ft 26 kts 235°
2026-05-05 21:47 35.58972 -5.32834 18 ft 10 kts 298°
2026-05-05 21:48 35.59012 -5.32919 19 ft 14 kts 306°
2026-05-05 21:48 35.59103 -5.32966 20 ft 13 kts 338°
2026-05-05 21:48 35.59109 -5.33028 21 ft 0 kts 252°